Wind_Speed
68 67 67 66 65 65 65 64 63 62 61 61 60 59 58 58 59 59 58 58 58 58 58 58 58 58 57 58 57 57 57 56 55 54 54 53 52 50 49 48 46 45 44 43 42 42 41 41 41 41 42 42 43 43 43 42 42 43 45 46 48 50 53 55 58 59 60 59 58 58 58 58 59 60 60 61 61 61 60 59 57 53 50 49 49 49
68 68 67 66 65 64 64 64 62 60 60 59 59 58 58 57 58 58 57 57 57 57 57 57 57 56 56 56 56 56 56 55 54 54 53 52 51 49 48 46 45 43 42 41 40 40 40 40 40 40 40 40 41 41 41 42 42 43 45 47 49 52 54 56 57 58 57 56 55 55 55 56 57 58 58 59 59 59 59 58 57 55 52 51 50 49
66 66 66 65 64 62 63 62 61 59 58 57 57 57 56 56 56 56 56 56 56 56 55 55 55 55 55 55 55 55 55 55 54 53 52 51 49 47 46 44 43 41 41 40 40 39 39 39 39 39 39 39 39 39 39 40 40 41 42 44 46 49 51 52 53 53 53 52 52 52 53 54 55 56 56 57 57 57 57 57 56 56 55 53 52 50
64 63 64 64 62 61 60 59 58 57 56 55 55 55 54 54 54 54 54 54 55 55 54 54 54 54 55 55 55 55 55 54 53 52 50 49 47 45 44 42 41 40 40 39 39 39 38 38 38 37 37 38 38 38 38 39 39 40 41 42 43 44 46 47 48 48 49 49 49 50 51 52 52 53 53 54 54 53 53 53 54 54 54 54 53 52
61 60 61 60 60 59 58 56 55 54 54 53 53 52 52 52 53 53 53 53 53 53 53 53 53 54 55 55 55 54 54 53 51 50 48 47 45 44 42 41 40 39 39 39 38 38 37 37 37 36 36 37 37 37 37 38 38 39 40 41 41 42 43 44 45 46 46 47 48 48 49 50 51 51 51 51 51 50 50 50 51 52 52 52 52 52
59 58 57 57 57 57 56 54 53 52 52 52 52 52 52 52 53 53 53 53 53 53 53 53 53 54 54 55 54 54 52 51 50 48 47 45 44 42 41 40 39 39 39 38 38 37 36 36 36 36 36 36 36 36 37 37 38 38 39 40 41 42 43 44 44 45 46 46 47 48 49 49 49 49 49 49 49 48 48 49 49 50 50 51 52 52
57 56 54 54 55 55 55 53 51 50 50 51 52 52 53 53 54 54 54 54 53 54 54 54 54 54 54 54 53 52 51 50 48 47 45 44 43 42 41 40 40 39 39 38 38 37 36 35 35 35 35 35 36 36 36 37 37 38 38 39 40 41 42 43 44 45 46 47 48 48 49 49 48 48 48 48 48 48 48 49 49 50 50 51 52 53
55 54 53 52 53 54 54 53 51 49 49 50 51 52 53 54 55 55 55 54 54 55 55 56 55 54 53 53 52 51 50 49 47 46 45 44 43 42 41 41 40 40 39 39 38 37 36 35 35 35 35 35 35 35 36 36 37 37 38 39 40 41 42 43 44 45 46 47 48 48 48 48 47 46 46 46 46 47 47 48 49 50 51 51 52 52
51 52 52 51 50 51 53 53 52 50 49 50 50 50 51 53 55 55 55 55 55 56 56 57 57 55 53 51 51 50 49 48 47 46 45 44 43 43 42 42 41 40 40 39 38 37 36 36 35 35 35 35 35 36 36 36 36 37 37 38 39 40 42 43 44 45 46 47 47 47 47 46 45 45 45 45 45 45 46 47 47 48 49 49 50 50
50 49 48 48 48 48 50 52 52 51 50 49 48 48 50 52 55 57 57 57 56 56 56 57 58 56 54 51 49 49 48 47 46 46 45 44 43 43 42 41 41 40 39 38 37 36 36 36 36 36 36 36 36 36 36 36 37 37 37 38 39 40 41 42 43 44 45 46 46 45 45 44 44 43 43 43 44 44 44 45 45 46 46 46 46 46
48 47 46 46 47 48 49 50 52 52 51 50 50 50 52 53 56 58 60 60 58 56 56 56 56 56 54 51 49 48 47 47 46 45 44 43 42 41 41 41 40 40 39 38 37 36 36 35 35 36 36 36 36 36 36 37 37 37 37 38 38 39 39 41 42 43 43 44 44 43 43 43 42 42 42 42 43 43 43 43 43 43 43 43 43 43
46 45 45 46 47 49 50 51 51 52 52 52 53 55 56 56 57 59 62 63 61 59 57 56 54 53 52 51 49 48 47 47 46 45 44 42 41 41 41 41 40 39 38 38 37 36 35 35 35 35 35 35 35 36 36 37 37 37 37 37 37 37 38 39 40 41 41 42 42 42 42 41 41 41 41 41 42 42 41 41 40 39 39 39 40 41
45 45 46 47 48 49 50 50 51 52 53 54 56 58 59 59 60 61 62 63 61 59 57 55 53 50 49 48 48 47 47 46 45 44 43 42 42 41 41 41 41 40 39 38 37 36 35 35 35 34 34 34 34 34 35 36 36 36 37 37 36 37 37 38 38 39 40 40 40 40 40 40 40 41 41 41 40 40 39 38 37 36 37 38 39 40
46 46 47 47 48 49 49 51 52 54 56 57 58 59 61 61 62 62 62 61 59 56 54 53 51 49 47 46 46 46 46 46 45 44 43 42 41 41 41 41 41 40 39 38 37 36 35 34 34 34 33 33 33 33 33 34 34 35 35 35 35 36 36 37 37 38 39 39 39 40 40 40 40 40 39 39 38 38 36 35 34 35 37 39 40 41
46 46 46 47 48 49 51 52 54 56 58 59 60 61 62 62 62 61 60 58 55 52 50 49 48 47 46 45 44 44 45 45 45 44 43 42 40 40 40 41 40 39 38 37 36 35 34 33 33 33 33 32 32 32 32 32 32 32 32 33 34 34 35 36 36 37 38 38 39 39 39 39 39 39 38 37 37 36 35 34 35 37 39 41 42 43
45 45 46 48 50 51 53 54 56 58 59 60 61 61 61 60 58 56 54 52 50 48 47 47 47 47 45 43 41 42 43 44 45 44 44 42 40 38 39 40 40 39 37 36 36 35 33 33 33 33 32 32 31 31 31 30 30 30 30 31 32 32 33 34 35 36 37 37 38 38 39 39 39 39 38 37 37 38 37 37 38 40 42 44 46 46
44 45 47 50 52 54 55 56 57 59 60 60 60 59 57 55 52 50 48 47 47 46 47 47 48 48 46 42 39 39 41 43 44 44 44 43 41 39 38 40 40 39 38 36 35 34 34 33 33 32 32 31 30 30 29 29 28 28 29 29 30 31 32 33 34 35 36 37 37 38 39 40 40 40 40 40 40 40 40 40 41 43 45 46 47 47
46 48 50 52 54 56 57 58 58 58 58 57 55 53 50 48 46 45 44 45 46 47 47 47 47 47 46 44 41 38 39 42 44 45 45 45 42 40 39 39 40 40 38 37 35 34 34 33 32 31 31 30 29 28 28 27 27 27 27 28 28 29 30 31 33 34 35 36 38 39 40 41 41 41 42 42 42 42 42 43 43 44 45 46 46 47
49 50 52 54 56 57 58 57 56 55 53 51 48 46 45 44 43 43 44 45 46 47 47 47 46 45 44 44 42 40 40 42 45 46 47 46 44 41 39 40 40 40 39 37 35 34 33 32 31 30 29 27 26 26 25 25 25 26 26 26 27 28 29 30 32 33 35 36 38 39 40 41 42 42 43 43 44 45 45 46 46 46 46 46 47 47
51 53 54 55 56 57 56 54 51 48 46 44 43 43 43 43 43 44 44 45 45 45 45 45 44 44 44 44 43 42 42 43 45 47 47 47 45 42 40 40 40 40 39 37 35 34 33 32 30 28 26 25 24 23 22 23 23 24 24 25 26 27 29 30 31 33 35 36 37 39 40 41 42 43 44 45 46 47 48 48 49 49 49 48 48 48
53 54 53 53 53 53 51 48 45 42 41 40 41 42 43 43 44 44 44 44 44 43 43 43 43 44 44 45 45 44 43 44 46 47 47 47 45 42 40 40 40 40 39 36 34 33 33 31 30 28 26 24 22 20 20 20 21 22 23 24 25 26 28 29 31 32 34 35 37 38 39 41 42 43 44 46 47 48 49 50 51 51 51 51 50 49
52 52 51 49 47 46 45 43 41 40 39 39 40 42 42 43 43 43 42 42 42 42 43 43 43 44 44 45 45 45 44 44 45 46 47 47 45 42 40 40 40 40 38 36 34 33 33 32 30 28 25 23 21 19 18 18 19 20 21 23 24 25 27 28 30 31 33 34 36 37 39 40 42 43 45 46 47 49 50 51 52 52 53 53 52 52
49 48 46 43 42 40 40 39 39 39 38 38 39 39 40 40 41 41 42 42 42 43 43 44 45 45 45 45 45 44 43 43 44 45 46 46 45 42 40 39 39 39 38 36 35 34 33 32 30 27 24 22 20 18 17 17 18 19 20 22 23 24 26 27 29 30 32 33 35 37 38 40 41 43 44 45 47 48 49 50 51 51 52 52 53 53
43 42 40 39 38 37 37 37 37 37 37 37 37 37 38 38 39 40 41 41 42 43 44 45 46 45 45 44 44 43 42 42 42 43 44 45 44 42 39 39 39 39 37 36 35 35 34 31 28 25 23 20 18 17 16 17 17 19 20 21 23 24 26 27 29 30 32 34 35 37 39 40 42 43 44 45 45 46 47 47 48 49 50 50 51 51
38 37 36 36 36 36 36 36 35 35 35 36 36 37 37 38 39 40 40 41 42 43 44 45 45 45 44 43 43 42 41 40 41 41 42 43 42 41 38 38 39 39 37 36 35 34 34 31 27 23 21 19 17 16 16 16 17 18 19 21 23 24 26 28 30 31 33 35 36 38 40 41 42 43 43 44 45 45 45 46 47 47 47 48 48 48
34 34 34 34 34 34 34 34 33 33 33 34 35 36 37 38 39 40 40 40 41 42 43 43 44 43 43 42 42 41 40 39 39 39 40 41 41 40 38 37 38 39 38 36 35 35 34 30 26 23 21 18 16 15 14 15 16 17 19 20 22 24 26 28 30 32 34 36 38 39 41 41 42 43 43 44 44 44 45 45 45 46 46 46 46 46
33 33 33 33 33 32 32 32 32 32 32 33 34 35 36 37 38 39 39 39 39 40 41 42 42 42 41 41 40 40 39 39 38 38 39 40 41 40 38 38 38 39 39 38 37 36 34 30 27 23 20 18 16 14 13 13 14 15 17 19 21 23 25 27 29 32 34 36 38 39 39 40 40 40 41 41 41 42 42 43 43 44 44 45 45 45
32 32 32 31 31 31 31 31 31 31 32 32 32 33 34 35 36 37 37 37 37 37 38 39 40 41 41 41 40 39 39 38 38 38 38 39 40 40 39 38 38 39 39 39 37 35 32 30 27 24 21 19 16 15 14 14 14 15 16 17 19 21 23 25 28 30 32 33 34 34 35 35 35 35 35 35 36 36 37 38 39 40 41 42 43 44
31 31 30 29 29 29 30 30 30 30 31 31 30 31 31 32 33 34 34 34 35 35 36 37 38 39 40 41 41 40 38 38 37 37 38 39 40 39 38 38 38 38 39 40 38 34 30 28 27 26 24 21 19 18 17 17 16 16 16 16 17 19 22 24 26 28 28 28 28 28 28 28 28 28 29 29 30 31 32 33 34 35 37 39 40 42
30 29 28 28 28 29 29 29 29 29 29 28 28 28 28 29 30 31 31 32 33 34 35 36 37 39 40 42 42 41 39 37 36 36 37 38 39 39 38 37 37 37 38 40 39 36 31 27 26 26 26 23 21 19 19 18 17 17 16 17 18 19 21 22 23 24 23 23 23 23 23 23 23 24 25 25 26 27 28 29 30 32 34 35 37 38
29 28 28 28 28 28 29 29 28 27 27 26 26 26 27 27 28 29 30 31 32 34 35 36 37 39 40 41 42 43 41 38 35 35 36 37 38 38 37 37 37 36 36 38 40 39 35 29 25 24 24 23 20 18 17 17 16 16 16 16 17 18 18 19 19 19 18 18 18 19 19 20 21 21 22 23 24 25 26 27 29 30 32 33 34 34
29 29 29 28 28 28 28 27 27 26 25 25 26 26 27 27 28 29 30 31 32 34 35 36 37 38 39 40 42 42 41 38 36 34 35 36 37 37 37 37 37 36 36 36 38 39 39 35 29 24 22 21 19 17 15 15 15 15 15 15 15 15 14 15 15 15 15 15 15 16 17 18 19 20 21 22 23 24 24 25 27 29 30 31 31 31
29 29 28 28 28 27 26 26 25 25 26 26 27 28 28 29 29 30 31 31 32 33 34 36 37 38 39 40 41 41 40 38 35 34 34 35 36 37 37 37 37 37 36 36 36 37 38 37 33 28 23 19 17 16 15 14 14 14 14 14 13 12 11 11 12 12 13 14 15 16 17 18 19 20 21 22 23 23 24 25 26 27 28 29 30 29
28 28 28 27 26 25 25 25 25 26 27 28 29 29 30 30 30 30 30 30 31 32 33 35 36 38 39 40 40 40 38 36 34 33 33 34 35 36 36 36 36 37 37 37 37 37 38 37 35 31 25 19 15 14 14 13 13 13 13 13 12 12 11 11 12 13 14 15 16 17 18 19 20 20 21 22 23 24 25 25 26 27 28 29 29 28
28 27 27 26 25 25 25 26 27 28 29 30 30 30 30 30 30 29 29 29 30 31 32 33 35 37 38 39 39 38 37 34 32 31 31 32 33 35 35 35 35 36 37 37 38 38 38 36 33 30 26 20 14 11 11 12 12 12 12 12 13 13 13 13 14 15 16 16 17 18 19 20 21 21 22 22 23 24 25 25 26 27 27 28 29 28
27 26 26 26 26 26 27 28 29 30 31 31 30 30 29 29 29 28 28 28 29 30 31 32 34 35 36 37 37 36 35 33 32 31 30 31 32 33 34 34 35 35 36 37 37 38 37 34 30 26 23 19 14 10 8 8 9 11 11 11 12 13 14 15 16 17 18 17 17 18 19 20 20 21 21 21 21 22 23 23 24 25 26 27 27 27
27 26 26 26 27 28 30 31 32 32 32 31 30 29 28 28 27 27 27 27 28 29 31 32 32 33 33 33 33 33 33 32 31 30 30 30 30 32 33 34 34 34 34 35 36 36 34 32 27 23 19 16 14 12 9 7 7 8 9 10 12 13 14 16 17 18 18 18 17 17 18 19 19 20 20 20 21 21 21 21 22 22 24 25 25 25
26 26 26 28 29 31 32 33 33 33 32 31 29 28 28 27 26 26 27 27 28 29 31 31 32 32 31 31 30 30 30 30 30 30 29 29 30 31 32 33 33 33 32 32 32 32 30 28 25 21 17 14 12 12 12 11 10 9 9 10 12 14 15 17 17 18 18 18 18 18 17 18 19 20 22 23 24 24 24 23 21 20 21 22 23 22
26 27 28 29 31 32 33 33 33 32 31 29 28 27 27 26 26 26 26 27 28 30 31 31 31 31 30 29 29 28 29 29 29 29 29 29 29 30 31 32 32 31 30 29 28 27 25 24 22 20 17 15 13 13 13 13 13 13 13 13 13 14 15 17 18 19 20 21 21 21 20 20 21 23 25 27 29 29 28 27 24 21 19 19 19 19
27 28 29 31 32 34 34 33 32 31 29 28 27 26 26 26 25 25 25 27 28 29 30 31 30 30 29 28 28 27 28 28 28 29 29 29 29 30 30 31 30 29 28 25 24 22 21 20 19 17 16 16 15 15 15 16 17 17 18 18 17 16 17 18 20 22 24 25 26 26 25 25 25 26 27 29 30 31 31 30 28 25 22 19 17 16
29 30 31 33 34 34 33 32 30 29 28 27 26 25 25 25 25 25 25 26 28 29 30 30 30 29 29 28 27 27 27 28 28 29 29 29 29 29 29 29 28 27 25 23 20 19 18 18 17 16 16 16 16 17 17 18 19 21 23 23 23 21 21 21 23 25 27 27 28 29 29 28 28 28 29 30 30 31 32 32 31 29 27 23 19 16
30 32 33 34 34 34 32 31 29 27 26 25 24 24 25 25 26 26 26 26 27 29 30 30 30 30 29 28 27 27 27 28 28 29 29 29 28 28 27 26 25 24 22 20 18 17 16 16 16 16 16 17 18 18 19 20 21 22 24 25 24 22 22 23 25 26 28 28 29 30 31 30 29 29 30 30 31 31 31 31 30 30 28 25 22 18
32 33 34 35 34 33 31 29 27 25 24 23 23 23 24 25 26 26 26 27 27 28 29 30 31 31 30 29 28 27 27 27 27 28 28 28 27 26 25 24 23 22 20 18 17 15 14 14 15 16 17 19 20 22 23 24 24 24 25 25 25 25 26 26 27 28 29 29 30 30 31 31 31 31 31 31 31 31 30 29 28 27 26 23 20 17
33 34 34 34 34 32 30 27 25 24 23 23 23 24 24 25 25 26 26 26 27 28 29 30 30 31 31 30 29 28 27 27 27 26 26 26 25 24 23 22 21 19 18 16 15 14 14 14 15 16 18 20 22 24 26 26 26 26 27 26 27 28 29 30 31 32 32 31 31 31 31 32 32 32 31 31 30 30 29 27 26 25 23 20 17 14
33 34 34 34 33 31 29 26 24 23 23 24 24 24 24 25 26 26 26 26 27 27 28 30 31 31 31 31 30 29 28 27 26 25 24 23 22 22 21 20 18 17 15 14 14 15 15 15 15 17 19 21 23 25 27 27 27 28 28 28 29 30 31 32 34 34 34 33 32 32 32 32 32 31 31 30 30 28 27 25 24 23 21 18 14 11
32 33 33 33 32 29 27 25 24 24 24 24 24 24 25 25 26 26 27 26 26 27 27 29 30 31 32 31 30 29 28 27 26 25 23 22 20 19 18 17 16 15 14 14 14 15 16 16 17 18 20 21 23 25 27 27 29 30 30 30 31 32 32 33 34 34 34 34 33 33 32 32 31 31 31 30 29 27 25 24 22 20 17 14 11 8
31 32 32 32 30 27 25 24 24 24 25 25 25 25 25 26 27 27 27 26 26 26 26 27 29 30 31 31 30 30 29 28 27 25 23 20 18 17 16 15 14 14 14 14 14 15 16 18 19 20 21 23 25 27 27 28 29 31 32 32 32 33 33 34 34 34 33 33 33 33 32 31 31 30 30 28 25 24 22 21 19 17 14 11 7 5
31 31 31 30 28 25 23 23 24 25 26 25 25 25 26 27 28 28 28 27 26 25 25 26 28 29 30 29 29 29 28 28 27 25 22 19 17 16 15 14 13 13 13 14 15 15 17 18 20 21 22 24 26 27 28 29 30 31 32 32 33 34 34 34 34 34 34 33 32 32 31 31 30 29 28 25 22 19 18 18 17 16 13 9 5 4
30 30 30 28 25 23 22 23 25 26 27 26 26 26 27 27 28 29 29 27 26 25 25 26 27 29 29 29 28 27 27 27 25 23 21 18 16 15 14 13 13 13 13 13 14 15 16 18 19 21 22 23 25 27 28 29 29 30 30 31 32 33 34 34 35 34 34 33 32 31 31 30 29 28 26 23 20 16 15 15 15 15 12 8 5 4
29 29 28 25 23 22 22 24 26 27 27 27 27 27 28 29 29 30 29 28 26 24 24 25 27 28 29 28 27 26 26 25 24 22 19 17 15 14 13 12 12 12 12 13 13 14 15 16 18 19 21 23 24 26 27 28 28 29 29 30 31 33 33 34 34 34 34 34 33 32 31 30 29 27 25 22 18 14 12 11 12 11 9 6 6 6
28 27 25 22 20 21 22 25 26 27 28 28 28 28 29 30 31 31 31 29 26 24 22 23 25 28 29 28 27 26 25 24 23 21 18 16 14 13 12 11 11 11 11 12 12 13 14 15 16 17 19 22 24 25 26 27 28 28 29 29 30 32 33 34 34 34 34 34 33 33 32 31 30 28 26 22 18 14 11 9 9 8 5 4 5 6
Wind_Direction
302 301 301 300 300 299 299 298 298 298 298 298 298 298 297 296 296 296 296 297 297 298 298 299 299 300 300 300 300 300 300 301 301 302 303 303 303 302 301 300 298 297 296 294 292 291 289 286 284 283 281 279 278 276 274 271 267 263 259 258 257 256 257 257 258 260 261 262 262 262 262 262 261 261 261 261 261 262 262 261 261 260 259 259 260 260
302 301 301 300 299 299 298 298 298 299 298 298 297 297 297 296 296 296 296 297 297 298 299 300 300 300 301 301 301 301 302 303 303 304 304 304 303 302 302 301 300 298 297 295 293 291 289 287 285 283 281 280 278 277 276 273 270 265 261 258 256 256 256 257 259 260 261 262 262 262 262 262 261 261 261 261 261 262 262 262 260 259 257 256 256 257
301 301 300 300 299 299 298 298 298 298 299 298 297 297 297 296 296 296 297 297 298 299 300 301 301 302 302 302 302 303 303 304 304 304 304 304 303 303 302 302 301 300 298 296 294 292 290 288 286 284 283 281 280 279 277 276 273 270 267 263 261 259 259 260 260 261 262 263 263 263 262 262 262 261 261 261 261 261 262 262 262 261 258 256 254 254
301 301 300 300 299 299 298 298 299 299 299 298 297 297 297 297 297 297 298 299 300 301 301 302 303 303 303 303 303 304 304 304 304 304 304 304 303 303 303 302 301 300 298 296 295 293 291 289 287 286 284 283 282 280 279 277 275 273 271 268 266 264 263 262 263 263 263 263 263 263 263 262 262 261 261 260 260 261 261 262 263 262 261 259 257 254
302 302 301 301 300 300 299 300 300 300 299 299 298 297 297 297 298 299 300 301 302 303 303 304 304 304 304 304 304 304 304 305 305 305 304 304 304 303 303 302 301 299 298 296 294 293 291 289 287 286 284 283 281 280 279 278 276 274 272 270 268 267 265 264 264 263 263 263 263 263 263 262 262 261 260 259 259 260 260 261 262 262 262 261 259 256
303 303 302 302 301 301 301 301 302 302 301 300 299 299 299 299 300 301 303 304 305 305 305 305 305 304 304 304 305 305 305 306 305 305 305 304 304 303 302 301 300 298 296 294 293 291 290 288 287 285 283 281 280 279 278 277 275 274 272 271 269 268 266 265 264 264 263 263 262 262 262 262 261 261 260 259 258 257 257 257 258 259 259 259 259 257
305 305 304 304 303 303 304 304 304 304 304 302 302 302 303 304 304 305 306 307 307 307 306 306 305 305 305 306 306 307 307 307 306 305 305 304 304 303 302 300 299 297 295 293 292 291 289 288 286 284 282 280 278 277 276 275 273 272 271 269 268 267 266 265 264 264 263 263 262 262 262 262 261 261 260 259 257 255 254 253 253 254 255 256 256 256
308 307 307 307 308 307 307 307 307 307 306 306 307 309 309 309 308 308 307 307 307 307 307 307 307 306 307 307 308 308 308 307 306 306 305 305 304 303 302 300 298 296 295 293 292 291 289 288 286 284 282 280 279 277 275 274 272 271 269 268 267 266 265 264 264 264 263 263 263 263 263 263 263 262 261 260 258 257 255 254 253 253 254 254 255 256
309 309 310 311 311 310 309 308 308 308 309 311 312 313 311 309 308 308 307 307 307 307 308 309 309 308 308 308 308 309 308 308 307 307 306 306 305 304 303 301 299 297 296 295 293 292 291 289 288 286 284 282 280 278 276 274 272 270 269 267 266 265 264 264 264 264 264 264 264 264 264 264 263 262 261 260 258 257 256 256 255 255 255 256 256 257
311 312 312 311 309 308 308 308 309 310 312 313 313 310 307 306 305 306 307 307 308 309 309 310 310 310 309 309 309 309 309 308 307 307 308 307 307 306 304 302 301 299 299 298 297 296 294 293 291 289 287 284 282 280 277 275 273 270 269 267 266 265 264 264 264 264 264 264 265 265 264 264 263 262 261 259 258 257 257 256 256 257 257 258 258 258
313 313 312 309 308 308 309 310 311 312 313 312 309 307 305 304 305 307 308 309 310 310 311 311 311 310 310 310 310 310 309 309 309 309 309 309 308 307 306 305 304 304 304 303 302 300 298 296 294 291 289 287 284 282 279 276 273 271 269 267 265 265 264 264 264 264 264 264 264 264 264 263 262 261 260 259 258 258 257 257 258 258 259 260 260 259
313 312 310 309 310 311 312 313 313 312 310 308 307 306 306 307 308 309 309 310 311 311 311 311 310 310 310 310 310 311 311 311 312 313 313 312 312 311 311 310 309 309 308 307 305 303 301 299 296 294 292 289 286 283 280 277 274 272 269 267 266 264 264 263 263 263 263 264 263 263 263 262 261 261 260 259 259 259 259 259 260 261 261 262 261 260
311 310 311 312 314 314 313 311 309 307 306 306 305 306 307 309 310 310 310 309 310 310 310 310 309 309 309 310 312 313 314 315 316 316 316 315 315 315 315 314 313 313 312 310 307 305 303 301 298 296 294 291 288 285 282 278 275 273 270 268 266 265 263 263 262 262 262 262 262 261 261 261 260 260 260 260 260 260 261 261 262 263 263 263 262 261
310 312 314 315 314 311 308 305 303 303 304 305 306 307 308 309 310 310 309 308 309 309 309 309 309 309 310 312 315 316 318 318 318 318 317 317 317 317 317 316 315 314 313 311 308 306 305 303 301 299 296 294 291 287 284 280 277 274 271 269 266 265 263 262 261 261 261 261 260 260 260 260 260 260 260 261 262 262 262 262 263 263 263 262 261 260
312 314 314 311 307 304 302 301 302 303 304 306 307 308 309 309 309 309 308 308 308 309 309 309 309 310 312 315 318 319 320 320 319 318 317 317 317 318 318 317 315 314 312 311 309 307 307 306 304 302 300 297 294 291 288 284 279 275 272 269 266 264 263 262 261 261 260 260 260 260 260 259 259 260 260 262 263 262 260 258 258 258 258 257 256 255
312 311 307 303 300 299 300 301 302 304 305 307 308 308 308 308 308 309 308 308 309 310 311 312 313 314 316 318 320 321 320 319 318 317 316 316 318 319 319 317 315 314 312 311 310 310 310 309 308 305 303 301 298 295 292 288 283 279 274 270 267 264 263 262 261 261 260 260 260 260 259 259 258 258 258 258 258 257 255 252 251 251 251 250 250 251
307 304 301 299 299 300 303 304 305 306 307 308 308 309 308 308 309 309 310 311 312 314 315 315 316 316 317 320 323 323 322 319 318 317 316 317 319 321 321 318 316 315 314 313 313 313 313 311 309 307 305 303 301 299 296 292 287 282 277 272 269 265 263 262 261 261 260 260 260 260 259 259 258 257 256 255 253 252 252 250 249 248 248 248 249 250
302 300 300 300 301 303 305 306 307 308 309 309 309 310 310 310 310 311 313 314 316 316 316 316 315 315 317 319 323 325 323 320 318 317 316 317 320 322 321 319 316 315 314 314 315 315 314 311 309 307 306 304 303 301 298 295 291 286 281 276 271 268 265 263 262 261 260 260 260 260 260 260 259 259 258 256 255 254 253 252 252 251 251 250 250 250
301 301 301 302 303 305 306 308 309 310 311 311 312 312 312 313 314 315 316 316 315 314 314 313 314 315 317 318 322 324 324 321 318 317 316 317 319 321 321 319 317 315 314 315 315 315 313 310 308 307 305 304 302 300 297 294 290 286 281 277 273 269 266 264 262 261 260 260 260 260 261 261 261 261 260 259 258 256 255 255 254 254 253 252 252 251
302 303 303 304 306 307 308 310 312 313 314 314 315 315 316 317 317 317 315 314 312 312 312 313 314 316 317 318 321 324 323 320 318 316 315 316 318 320 321 319 317 315 314 315 316 315 312 310 308 307 306 304 301 298 294 290 286 282 279 275 272 269 266 264 263 262 261 261 261 261 261 261 261 261 261 260 259 258 257 256 255 255 254 253 252 251
303 305 307 308 309 309 311 313 315 317 318 319 319 319 319 318 317 315 313 312 311 312 313 314 315 317 318 318 320 322 322 319 316 315 315 315 317 320 321 319 317 315 315 316 316 316 314 312 311 310 309 306 303 298 293 287 283 279 276 273 271 268 267 265 264 263 262 262 262 261 261 261 261 261 260 259 259 258 257 256 256 255 255 254 253 251
305 307 311 312 312 313 314 317 319 320 321 321 320 318 317 315 314 313 312 312 313 314 315 315 316 317 317 317 319 321 320 318 316 315 315 315 317 320 321 319 317 316 316 318 319 318 316 315 314 314 313 311 307 302 295 288 283 279 276 273 271 270 268 267 265 264 264 263 262 262 261 261 260 260 259 258 257 257 256 256 256 256 255 254 253 252
309 311 314 315 316 317 318 320 321 322 321 320 318 316 314 313 313 312 313 314 314 315 315 316 316 317 318 318 318 319 319 318 317 316 316 316 317 320 321 320 318 317 318 320 321 320 318 317 317 317 316 314 310 304 297 290 284 280 276 274 272 270 269 267 267 266 265 264 264 263 262 261 261 260 259 258 257 257 256 256 256 256 255 255 254 253
313 315 317 319 320 320 321 321 321 321 320 318 317 316 315 314 314 313 314 314 315 315 316 316 316 317 318 318 318 319 320 320 319 318 317 317 317 319 321 321 319 319 320 322 322 321 320 319 319 320 319 317 313 307 299 292 286 281 277 274 271 270 268 267 267 267 266 266 266 265 264 263 262 261 260 259 259 258 258 257 257 256 256 255 254 253
317 319 321 322 322 322 322 321 321 320 320 319 318 317 316 315 314 314 314 315 315 315 314 314 314 315 317 319 320 321 323 323 321 320 319 318 318 319 321 321 320 320 321 323 324 323 322 322 323 324 324 322 317 311 302 295 288 282 277 273 270 268 267 267 267 267 267 267 266 266 265 264 263 263 263 263 263 262 261 260 259 258 257 256 255 253
321 323 323 323 323 323 322 322 321 321 321 320 319 318 317 315 314 313 314 314 314 313 312 312 313 316 319 321 322 324 326 326 325 323 321 319 318 319 321 322 321 321 322 325 326 326 325 325 327 329 328 326 320 313 304 295 287 280 274 270 268 266 266 265 266 266 266 266 265 265 265 265 266 267 268 268 268 267 266 265 263 262 260 258 256 253
325 325 325 325 325 324 324 323 323 323 322 321 319 317 315 313 312 312 312 313 313 313 312 313 316 319 323 324 326 327 328 328 328 327 323 320 318 319 322 323 323 323 324 325 327 327 326 327 329 332 332 329 323 315 306 296 286 278 272 268 265 264 264 264 264 265 265 265 265 266 268 269 271 272 273 272 272 271 270 268 267 265 263 260 258 254
328 328 327 327 327 326 326 326 325 324 322 320 317 315 312 311 310 310 312 313 314 314 314 316 318 321 324 326 328 329 330 331 331 329 325 321 319 320 322 324 324 324 325 326 327 327 327 329 332 335 335 333 328 322 314 305 296 287 279 274 270 268 267 267 266 266 267 269 271 273 275 276 277 277 277 276 275 274 272 271 269 267 265 262 260 257
330 330 329 329 329 328 327 326 325 323 321 319 316 314 312 311 311 312 314 315 316 317 318 320 322 324 326 328 329 331 332 333 333 330 325 321 319 320 323 324 324 326 326 327 327 327 328 332 336 338 339 337 334 330 324 316 308 300 292 286 281 278 275 274 273 274 275 278 280 281 282 282 282 281 280 279 278 277 275 273 271 268 266 264 262 260
333 332 332 332 332 330 329 327 325 323 321 319 318 317 316 315 315 316 318 319 320 321 322 324 326 327 328 328 329 331 334 336 334 330 325 320 319 320 323 324 325 327 328 328 328 327 329 335 339 341 340 339 336 333 327 320 312 305 299 293 288 284 281 279 280 281 283 284 284 285 285 284 284 283 283 282 280 279 277 275 272 269 267 265 264 262
335 336 336 335 334 332 329 327 326 325 324 323 323 322 322 322 322 322 323 324 324 325 326 327 327 328 329 328 328 330 333 336 335 330 325 321 320 321 323 324 326 328 329 329 327 327 329 334 340 344 342 340 337 333 326 319 311 304 298 292 287 284 283 283 284 285 285 285 285 285 286 286 285 285 284 283 281 280 278 276 273 270 267 266 265 264
337 337 337 336 334 332 330 329 328 328 328 328 328 328 327 326 326 326 326 326 327 327 327 327 328 329 329 328 328 329 332 335 334 330 325 322 321 322 324 325 326 328 330 329 328 327 327 330 337 343 344 342 339 333 325 316 308 301 295 290 288 288 289 288 288 289 290 290 290 290 290 290 290 289 287 286 284 282 280 277 274 271 269 268 266 266
338 338 337 335 333 332 331 331 331 332 332 332 332 331 329 328 327 327 327 327 328 328 328 328 328 329 329 329 329 330 332 334 333 330 326 323 322 322 324 325 327 328 329 329 328 327 327 329 333 338 342 343 341 334 324 314 306 301 298 297 298 301 302 301 300 300 300 299 298 297 297 296 295 294 293 291 289 287 285 282 279 275 272 270 269 267
338 338 336 334 333 333 333 334 335 335 335 334 333 331 330 329 328 328 328 329 329 330 330 329 329 329 329 329 330 331 333 334 333 330 327 324 323 322 324 326 327 328 328 328 328 328 328 329 332 335 338 341 342 336 326 315 309 308 309 310 314 318 320 317 314 312 310 307 305 304 304 303 301 300 299 297 295 293 291 287 284 280 277 274 272 270
338 337 336 335 334 335 336 336 336 336 335 335 334 333 331 330 330 330 330 331 331 331 331 331 330 330 330 330 330 332 333 334 333 331 328 326 324 323 324 326 328 328 328 328 327 327 327 328 331 333 334 337 341 341 332 320 316 317 320 322 324 326 327 324 320 317 315 313 312 312 311 309 308 306 304 302 300 298 295 291 288 284 281 278 276 273
337 337 337 336 336 336 337 337 337 337 336 336 335 334 334 333 333 333 334 334 334 333 333 332 332 331 331 332 332 333 334 334 334 332 330 328 326 324 324 326 327 328 327 326 326 326 325 327 330 332 334 336 340 345 343 332 326 325 328 330 330 329 327 324 321 320 320 320 319 317 315 313 311 310 309 308 307 305 302 297 293 289 285 282 279 276
338 338 338 338 337 337 338 338 338 338 338 337 337 337 336 336 336 336 337 337 337 336 335 334 334 334 335 335 335 334 334 334 334 333 331 329 327 326 325 326 327 327 326 325 324 324 324 326 329 334 339 342 346 351 355 356 351 345 343 340 336 332 329 325 324 324 326 328 327 324 321 318 316 317 319 320 321 320 317 312 304 297 290 286 283 280
339 339 339 339 338 338 338 339 339 339 339 340 340 339 339 338 339 339 340 340 340 339 338 337 337 338 338 338 338 337 335 335 334 333 332 330 329 327 326 326 326 326 325 324 324 324 325 327 331 337 347 358 3 3 3 7 9 7 2 353 344 337 333 330 330 332 336 338 338 336 333 330 330 332 334 335 334 333 331 327 319 308 298 291 287 284
340 340 339 339 339 339 339 340 340 341 341 341 341 341 340 340 340 341 342 343 343 342 341 341 341 341 341 341 340 339 337 336 335 334 333 332 330 328 327 327 327 327 327 327 326 327 328 331 336 343 353 6 16 19 16 14 12 10 8 4 357 349 342 339 340 343 345 347 348 349 348 347 346 346 346 344 341 337 333 330 326 320 310 300 293 288
340 339 339 339 339 340 340 341 342 342 342 342 342 341 340 340 340 342 343 345 345 345 344 343 343 343 344 343 342 340 339 337 336 335 334 333 332 331 330 329 329 330 331 332 334 334 335 339 345 353 1 10 17 23 23 19 14 11 10 10 10 7 358 353 351 350 350 351 351 353 355 356 356 354 350 347 342 336 331 328 327 325 322 315 306 296
339 338 338 338 339 341 342 343 343 344 344 344 343 342 341 340 341 342 344 346 347 347 346 345 345 345 345 345 344 342 341 340 339 338 337 336 335 334 334 334 335 336 338 341 344 346 347 350 357 6 15 20 24 26 25 21 16 13 12 13 14 12 6 0 356 354 352 352 352 354 355 356 355 353 349 346 341 337 332 329 327 327 327 327 323 315
338 337 338 339 340 342 343 344 345 345 346 345 344 343 342 342 342 342 343 345 347 348 348 347 346 346 345 346 345 345 344 343 342 341 340 339 338 338 339 341 342 344 347 351 355 359 2 4 9 17 24 28 30 30 29 26 21 16 14 12 10 7 5 2 358 355 353 352 352 353 353 352 351 349 346 343 340 337 333 330 328 327 328 330 332 330
336 337 338 339 341 342 343 345 346 347 348 347 346 345 344 343 342 342 342 343 345 347 348 347 346 346 346 346 347 348 348 347 345 344 343 342 342 343 345 347 350 352 354 359 6 13 18 20 21 23 27 29 30 30 29 29 25 19 16 12 8 6 4 2 360 358 356 354 353 352 351 349 347 346 344 341 339 336 334 330 328 327 329 333 337 339
336 337 339 340 342 343 344 346 348 350 351 350 349 347 346 345 343 342 341 341 343 345 346 346 346 346 346 347 348 350 351 350 349 348 347 347 347 349 351 353 356 360 3 9 17 25 31 31 29 29 30 29 29 29 30 29 26 22 18 14 10 7 3 1 360 359 358 357 356 353 350 347 345 343 341 339 338 336 334 330 328 328 331 336 341 343
336 337 339 341 342 343 344 346 350 353 354 352 351 349 348 346 345 343 341 340 341 343 345 346 346 347 347 348 349 351 353 354 354 353 353 353 353 354 356 359 3 9 15 22 29 34 36 35 35 35 34 33 31 29 29 28 26 23 20 16 12 8 4 2 1 359 358 357 355 353 350 347 344 341 338 337 336 334 332 329 328 331 335 342 347 349
337 338 339 341 342 343 345 348 352 355 356 355 353 351 350 348 347 345 343 341 341 342 344 345 347 348 349 349 350 352 354 356 357 358 359 359 359 0 2 6 12 19 27 33 38 40 40 39 39 40 40 38 35 32 29 27 25 23 21 17 12 8 6 4 3 0 358 356 353 351 350 348 345 341 338 337 337 335 332 329 331 337 345 351 355 356
338 338 339 341 342 343 346 351 356 358 358 357 355 354 352 351 349 347 345 342 341 341 343 345 347 349 350 351 352 353 355 357 359 1 3 4 5 7 10 14 20 28 35 39 42 43 42 42 41 41 41 40 37 34 31 27 24 22 19 16 11 8 7 6 4 2 359 355 352 350 349 348 345 343 341 341 341 339 336 334 338 347 358 3 6 8
338 339 339 340 342 344 349 355 360 1 360 359 358 357 356 354 352 349 347 344 342 342 343 345 348 350 352 353 354 355 357 358 360 2 5 8 12 14 17 21 26 32 38 41 43 44 43 42 41 39 38 38 36 34 31 27 24 21 18 14 10 8 7 7 5 3 0 357 354 351 350 348 345 344 344 346 346 345 343 344 350 0 11 17 21 20
338 338 339 340 342 347 354 360 3 2 1 360 360 0 360 359 356 353 350 347 345 343 344 346 349 352 353 355 356 357 359 360 1 3 7 11 16 20 24 27 31 35 38 41 42 42 42 40 38 37 36 35 35 33 31 28 24 21 17 13 10 8 7 6 5 4 1 359 357 355 353 351 349 348 347 347 348 348 350 353 1 11 21 22 13 358
338 339 340 341 345 351 359 4 4 2 1 1 1 2 2 2 0 358 355 351 348 346 346 348 351 353 355 356 358 359 360 1 3 5 9 14 19 25 28 33 36 39 40 41 41 40 39 37 35 33 33 34 33 31 29 27 24 21 17 13 11 9 7 6 5 4 2 0 359 358 357 356 355 354 353 351 351 351 353 358 6 18 29 15 350 338
339 340 341 344 349 357 4 5 4 1 360 0 1 2 2 2 1 0 359 356 353 350 349 350 353 355 356 357 358 360 1 2 4 7 11 16 22 27 31 35 39 41 43 43 44 43 41 38 35 32 31 32 32 29 25 23 21 19 15 13 12 11 9 8 5 3 1 0 360 360 360 360 360 360 359 359 357 356 357 1 13 30 44 12 347 346
Height
2883 2881 2879 2877 2875 2873 2871 2868 2866 2865 2863 2860 2857 2855 2854 2852 2850 2848 2846 2844 2843 2841 2839 2837 2836 2834 2833 2831 2829 2828 2826 2824 2823 2821 2819 2818 2816 2815 2814 2812 2810 2809 2808 2807 2806 2804 2803 2802 2801 2800 2799 2798 2797 2796 2795 2795 2795 2795 2795 2795 2794 2794 2793 2793 2792 2791 2791 2791 2791 2790 2790 2790 2790 2790 2790 2790 2791 2792 2793 2794 2796 2798 2800 2802 2802 2803
2878 2876 2874 2871 2869 2868 2866 2863 2861 2860 2858 2855 2853 2850 2849 2847 2845 2843 2842 2840 2839 2837 2835 2833 2831 2829 2827 2826 2824 2823 2821 2819 2818 2816 2815 2813 2812 2810 2809 2807 2806 2804 2804 2802 2801 2800 2799 2798 2796 2795 2794 2793 2792 2791 2791 2790 2789 2789 2789 2788 2788 2788 2787 2787 2786 2786 2786 2786 2786 2785 2785 2785 2785 2785 2785 2786 2786 2787 2788 2789 2791 2793 2796 2797 2799 2799
2873 2871 2869 2866 2864 2863 2861 2859 2857 2855 2853 2851 2848 2846 2844 2842 2840 2839 2837 2836 2834 2833 2831 2829 2827 2824 2823 2821 2819 2818 2816 2815 2813 2812 2810 2809 2807 2806 2804 2803 2802 2800 2799 2798 2797 2795 2794 2793 2792 2791 2790 2789 2788 2787 2786 2785 2785 2784 2784 2784 2783 2783 2782 2782 2781 2781 2781 2781 2781 2780 2780 2780 2780 2780 2781 2781 2782 2783 2784 2785 2786 2787 2789 2791 2794 2795
2868 2866 2864 2861 2859 2857 2855 2854 2853 2851 2849 2846 2844 2842 2840 2838 2836 2834 2833 2832 2830 2828 2826 2824 2823 2820 2818 2816 2814 2813 2812 2810 2809 2807 2806 2804 2803 2802 2800 2799 2798 2796 2795 2794 2792 2791 2790 2789 2788 2787 2786 2785 2784 2783 2782 2781 2780 2780 2779 2779 2778 2778 2778 2777 2777 2776 2776 2776 2776 2776 2775 2775 2775 2776 2776 2777 2777 2779 2779 2780 2781 2782 2784 2785 2787 2789
2863 2862 2859 2857 2854 2852 2851 2850 2849 2847 2844 2842 2840 2838 2836 2834 2832 2830 2829 2827 2826 2824 2822 2820 2818 2816 2814 2812 2810 2809 2807 2806 2804 2803 2802 2800 2799 2798 2797 2795 2794 2793 2791 2790 2789 2788 2786 2785 2784 2783 2782 2781 2780 2779 2778 2777 2776 2775 2775 2774 2774 2773 2773 2772 2772 2772 2771 2771 2771 2771 2771 2770 2770 2771 2771 2772 2773 2775 2776 2777 2777 2778 2779 2780 2781 2783
2859 2858 2856 2854 2851 2848 2847 2846 2844 2843 2840 2838 2836 2834 2832 2830 2828 2826 2824 2823 2821 2819 2817 2816 2814 2812 2810 2808 2806 2804 2803 2802 2800 2799 2798 2796 2795 2794 2793 2792 2790 2789 2788 2786 2785 2784 2783 2782 2781 2779 2778 2777 2776 2775 2774 2773 2772 2771 2771 2770 2769 2769 2769 2768 2768 2767 2767 2767 2766 2766 2766 2765 2765 2766 2766 2766 2768 2769 2771 2772 2773 2774 2775 2776 2776 2777
2854 2853 2852 2850 2847 2844 2843 2842 2841 2839 2837 2833 2831 2829 2827 2826 2824 2822 2820 2819 2817 2815 2813 2811 2809 2808 2806 2804 2802 2800 2799 2798 2796 2795 2794 2792 2791 2790 2789 2788 2786 2785 2784 2782 2781 2780 2779 2778 2777 2775 2774 2773 2772 2771 2770 2769 2768 2767 2766 2766 2765 2764 2764 2763 2763 2763 2762 2762 2761 2761 2761 2761 2761 2761 2761 2762 2763 2764 2764 2765 2766 2768 2769 2770 2770 2771
2851 2849 2848 2846 2844 2840 2839 2837 2837 2836 2834 2830 2827 2824 2823 2821 2820 2819 2817 2815 2814 2812 2809 2807 2805 2804 2802 2800 2799 2797 2795 2793 2792 2790 2789 2788 2787 2786 2785 2783 2782 2780 2779 2778 2777 2776 2775 2774 2772 2771 2770 2769 2767 2766 2765 2765 2764 2763 2762 2761 2760 2760 2759 2759 2758 2758 2758 2757 2757 2756 2756 2756 2757 2757 2757 2758 2758 2759 2759 2760 2761 2762 2763 2764 2765 2766
2849 2846 2843 2842 2841 2839 2835 2833 2833 2833 2831 2828 2825 2824 2821 2818 2816 2814 2813 2812 2810 2809 2806 2803 2800 2799 2797 2797 2795 2793 2791 2789 2788 2786 2785 2784 2783 2781 2780 2779 2777 2776 2774 2774 2773 2771 2770 2769 2768 2766 2765 2764 2763 2762 2761 2760 2759 2758 2757 2757 2756 2755 2755 2754 2754 2754 2753 2753 2753 2752 2752 2753 2753 2753 2753 2754 2754 2755 2755 2756 2757 2758 2759 2759 2760 2761
2846 2844 2842 2840 2839 2838 2835 2831 2828 2828 2828 2826 2824 2823 2820 2817 2814 2811 2808 2807 2806 2805 2803 2800 2797 2794 2792 2792 2791 2789 2787 2785 2784 2783 2782 2780 2779 2777 2775 2774 2772 2771 2770 2769 2768 2767 2765 2764 2763 2762 2761 2759 2758 2757 2756 2755 2754 2754 2753 2752 2752 2751 2751 2750 2749 2749 2749 2749 2749 2749 2749 2749 2749 2749 2749 2750 2750 2751 2751 2752 2753 2754 2754 2755 2756 2757
2844 2842 2841 2838 2836 2834 2833 2830 2827 2825 2824 2824 2822 2819 2818 2816 2813 2809 2804 2801 2800 2799 2798 2796 2794 2791 2789 2787 2786 2785 2784 2781 2780 2779 2778 2776 2774 2773 2771 2769 2767 2766 2765 2764 2763 2762 2761 2760 2759 2757 2756 2755 2754 2753 2752 2751 2750 2749 2748 2748 2748 2747 2747 2746 2746 2745 2745 2745 2745 2744 2745 2745 2745 2745 2746 2746 2746 2747 2747 2748 2749 2750 2751 2751 2752 2753
2842 2840 2839 2836 2834 2832 2829 2827 2825 2824 2823 2821 2818 2815 2814 2812 2810 2807 2803 2798 2795 2794 2793 2791 2790 2789 2787 2784 2782 2781 2780 2778 2775 2774 2773 2771 2769 2768 2765 2764 2762 2761 2760 2759 2759 2758 2756 2755 2754 2753 2751 2750 2749 2749 2747 2746 2745 2744 2744 2744 2743 2743 2743 2742 2742 2741 2741 2741 2741 2741 2741 2741 2741 2742 2742 2742 2743 2743 2744 2745 2745 2746 2747 2747 2748 2748
2841 2839 2836 2834 2831 2829 2828 2826 2824 2822 2820 2818 2816 2813 2809 2808 2806 2804 2800 2796 2794 2792 2789 2787 2785 2784 2784 2782 2780 2778 2775 2773 2771 2770 2768 2766 2765 2764 2761 2759 2758 2757 2756 2754 2754 2753 2752 2751 2749 2748 2747 2746 2745 2744 2743 2742 2741 2740 2740 2739 2739 2739 2739 2738 2738 2738 2737 2737 2737 2737 2737 2737 2738 2738 2738 2739 2739 2740 2741 2742 2742 2743 2744 2744 2744 2744
2838 2836 2834 2831 2830 2828 2827 2824 2822 2819 2817 2815 2813 2810 2807 2804 2803 2800 2797 2794 2791 2789 2787 2784 2782 2780 2780 2779 2778 2775 2772 2770 2767 2766 2764 2763 2762 2761 2759 2756 2755 2754 2753 2751 2749 2749 2748 2747 2745 2744 2743 2742 2741 2739 2739 2738 2737 2736 2736 2736 2735 2735 2735 2734 2734 2734 2734 2734 2733 2734 2734 2734 2734 2734 2735 2735 2736 2737 2738 2738 2739 2741 2742 2742 2741 2741
2836 2834 2833 2831 2829 2827 2824 2822 2819 2816 2814 2812 2810 2808 2804 2802 2800 2797 2794 2790 2788 2786 2784 2781 2779 2777 2777 2776 2775 2773 2770 2767 2764 2762 2761 2760 2759 2759 2757 2754 2752 2751 2750 2748 2746 2745 2744 2743 2741 2739 2738 2738 2737 2735 2734 2734 2733 2733 2732 2732 2731 2731 2731 2730 2730 2730 2730 2730 2730 2730 2730 2730 2731 2731 2732 2734 2734 2734 2734 2735 2737 2738 2738 2737 2737 2736
2836 2834 2832 2829 2826 2823 2821 2819 2817 2814 2811 2809 2807 2805 2802 2799 2797 2794 2792 2788 2785 2783 2781 2778 2775 2773 2773 2774 2773 2772 2769 2765 2762 2760 2758 2756 2756 2757 2755 2752 2749 2747 2746 2745 2743 2742 2741 2739 2738 2736 2735 2734 2733 2732 2731 2730 2729 2729 2729 2728 2728 2727 2727 2727 2727 2726 2726 2726 2726 2726 2726 2727 2727 2728 2729 2730 2730 2729 2730 2730 2731 2731 2731 2730 2730 2730
2834 2832 2829 2825 2822 2820 2818 2817 2815 2812 2809 2807 2804 2802 2799 2797 2794 2791 2789 2786 2783 2780 2778 2776 2773 2770 2768 2768 2770 2770 2768 2764 2760 2757 2755 2753 2753 2754 2753 2750 2746 2744 2742 2741 2740 2739 2738 2736 2735 2733 2732 2731 2730 2729 2728 2727 2726 2725 2725 2724 2724 2724 2724 2724 2723 2723 2723 2723 2723 2723 2723 2723 2723 2723 2724 2724 2724 2724 2724 2724 2724 2724 2724 2724 2725 2725
2831 2829 2825 2823 2820 2817 2815 2814 2812 2809 2807 2804 2801 2799 2796 2794 2791 2789 2786 2784 2781 2779 2776 2774 2772 2769 2767 2764 2765 2766 2766 2762 2757 2754 2752 2750 2750 2750 2750 2747 2744 2741 2739 2738 2737 2736 2735 2733 2732 2731 2729 2729 2728 2726 2725 2724 2723 2722 2722 2721 2721 2720 2720 2720 2720 2720 2720 2720 2720 2720 2719 2719 2719 2719 2719 2719 2719 2719 2719 2719 2719 2720 2720 2720 2721 2721
2827 2825 2823 2820 2817 2814 2813 2811 2809 2807 2804 2801 2798 2795 2793 2790 2788 2786 2784 2782 2780 2778 2776 2773 2770 2768 2766 2764 2762 2763 2763 2759 2755 2752 2749 2747 2746 2747 2747 2744 2741 2738 2736 2735 2735 2734 2732 2731 2729 2729 2728 2727 2725 2724 2723 2722 2721 2720 2719 2718 2718 2718 2717 2717 2717 2717 2717 2717 2716 2716 2716 2716 2716 2716 2716 2716 2716 2715 2715 2715 2715 2716 2716 2716 2717 2717
2824 2822 2821 2818 2815 2812 2809 2808 2806 2804 2802 2799 2796 2793 2789 2787 2785 2784 2782 2780 2779 2777 2774 2772 2769 2767 2765 2762 2760 2760 2759 2757 2754 2750 2747 2744 2743 2743 2743 2741 2738 2735 2734 2733 2732 2731 2729 2728 2727 2726 2725 2724 2724 2722 2721 2720 2719 2717 2717 2716 2715 2715 2714 2714 2714 2714 2714 2714 2713 2713 2713 2713 2712 2712 2712 2711 2711 2711 2711 2711 2711 2711 2711 2712 2712 2713
2821 2819 2818 2816 2814 2810 2807 2804 2803 2801 2799 2796 2793 2790 2788 2786 2784 2782 2780 2779 2776 2774 2772 2769 2767 2765 2763 2760 2758 2757 2757 2755 2752 2748 2744 2742 2740 2740 2740 2738 2735 2732 2730 2730 2729 2728 2726 2724 2723 2723 2722 2721 2720 2719 2718 2717 2716 2715 2714 2713 2713 2712 2712 2711 2711 2711 2711 2710 2710 2710 2709 2709 2709 2708 2707 2707 2707 2706 2706 2706 2706 2706 2706 2707 2707 2708
2819 2816 2814 2814 2811 2808 2805 2802 2800 2799 2797 2795 2793 2791 2788 2786 2783 2780 2778 2776 2774 2772 2769 2767 2765 2763 2761 2759 2756 2755 2755 2753 2750 2747 2743 2739 2737 2737 2737 2735 2732 2729 2727 2726 2725 2724 2723 2721 2720 2719 2719 2718 2717 2716 2715 2714 2714 2713 2712 2711 2710 2710 2709 2709 2709 2708 2708 2708 2707 2707 2706 2705 2704 2704 2703 2703 2702 2702 2701 2701 2701 2701 2701 2702 2702 2703
2817 2814 2812 2811 2809 2806 2803 2800 2798 2797 2796 2795 2793 2791 2787 2785 2782 2779 2776 2774 2772 2769 2767 2764 2762 2760 2759 2757 2755 2754 2753 2751 2749 2745 2742 2737 2734 2733 2734 2732 2729 2726 2724 2724 2722 2721 2719 2718 2717 2716 2716 2715 2715 2714 2713 2712 2711 2710 2709 2709 2708 2707 2707 2706 2706 2705 2705 2704 2704 2703 2702 2701 2700 2699 2699 2698 2697 2697 2696 2696 2696 2696 2696 2697 2697 2698
2815 2813 2810 2809 2806 2804 2802 2800 2798 2796 2795 2793 2790 2787 2785 2783 2780 2777 2775 2772 2770 2767 2765 2762 2760 2758 2757 2755 2754 2752 2751 2749 2747 2744 2740 2736 2732 2731 2730 2729 2727 2724 2722 2721 2720 2718 2716 2715 2715 2714 2713 2713 2712 2711 2710 2709 2709 2708 2707 2706 2705 2704 2704 2703 2703 2702 2701 2701 2700 2699 2698 2696 2695 2694 2693 2693 2692 2692 2692 2692 2692 2692 2692 2692 2692 2693
2814 2811 2809 2807 2805 2803 2801 2799 2797 2795 2793 2790 2788 2785 2783 2780 2778 2776 2774 2771 2769 2766 2764 2761 2759 2757 2755 2754 2752 2750 2749 2748 2745 2742 2739 2734 2730 2729 2728 2727 2725 2722 2719 2719 2718 2716 2714 2712 2712 2711 2711 2710 2710 2709 2708 2707 2706 2705 2704 2703 2703 2702 2701 2700 2700 2699 2698 2697 2696 2694 2693 2691 2690 2689 2689 2688 2688 2688 2688 2687 2687 2687 2687 2687 2687 2688
2812 2810 2808 2806 2804 2802 2800 2798 2796 2794 2792 2789 2787 2784 2781 2779 2776 2774 2772 2770 2768 2766 2763 2760 2757 2755 2754 2752 2750 2748 2747 2745 2743 2741 2737 2733 2729 2726 2726 2725 2723 2720 2717 2716 2715 2713 2711 2710 2709 2709 2708 2708 2707 2707 2706 2705 2704 2702 2701 2700 2699 2699 2698 2697 2697 2695 2694 2693 2691 2690 2688 2687 2686 2686 2685 2685 2684 2684 2683 2683 2682 2682 2682 2682 2682 2682
2811 2809 2806 2804 2802 2800 2798 2796 2794 2792 2790 2789 2786 2784 2781 2778 2775 2773 2771 2769 2768 2765 2762 2759 2756 2754 2752 2750 2748 2746 2745 2743 2741 2739 2735 2732 2727 2724 2723 2723 2720 2718 2715 2713 2712 2710 2709 2707 2706 2706 2706 2705 2704 2704 2703 2702 2701 2699 2699 2698 2697 2696 2695 2694 2693 2692 2690 2689 2687 2686 2685 2684 2684 2683 2682 2681 2680 2679 2679 2678 2678 2677 2677 2677 2677 2677
2808 2806 2804 2803 2801 2799 2797 2794 2793 2791 2789 2788 2786 2784 2781 2778 2775 2773 2770 2769 2767 2764 2762 2759 2755 2752 2750 2748 2746 2745 2743 2741 2739 2736 2733 2729 2726 2723 2721 2720 2719 2716 2713 2710 2709 2708 2707 2705 2704 2703 2702 2702 2701 2700 2699 2699 2697 2696 2695 2695 2694 2693 2693 2691 2690 2688 2687 2685 2684 2684 2683 2682 2680 2679 2678 2677 2676 2675 2674 2674 2673 2673 2673 2672 2672 2672
2806 2805 2803 2801 2799 2797 2795 2793 2792 2790 2788 2787 2785 2783 2781 2778 2775 2773 2770 2768 2766 2763 2760 2758 2755 2752 2749 2746 2744 2743 2742 2740 2738 2735 2731 2728 2724 2722 2720 2719 2717 2715 2712 2708 2705 2704 2704 2704 2703 2701 2699 2699 2698 2697 2696 2695 2694 2693 2692 2692 2691 2690 2689 2688 2686 2685 2684 2683 2682 2681 2680 2679 2677 2676 2675 2674 2673 2672 2671 2670 2670 2669 2669 2668 2668 2667
2804 2803 2801 2799 2798 2796 2794 2792 2790 2789 2787 2786 2784 2782 2780 2777 2775 2772 2769 2767 2765 2762 2759 2756 2754 2751 2747 2744 2741 2740 2739 2739 2737 2734 2730 2726 2723 2720 2719 2717 2716 2714 2711 2708 2703 2700 2700 2701 2701 2700 2698 2697 2696 2694 2693 2692 2690 2690 2689 2689 2689 2688 2686 2685 2684 2682 2681 2680 2679 2678 2677 2676 2674 2674 2672 2671 2670 2669 2668 2667 2667 2666 2666 2665 2664 2663
2802 2800 2799 2797 2796 2794 2792 2791 2789 2788 2786 2784 2782 2780 2778 2776 2774 2771 2769 2766 2764 2761 2758 2755 2752 2750 2747 2744 2740 2738 2736 2736 2735 2733 2729 2725 2721 2719 2718 2716 2714 2713 2711 2709 2704 2700 2696 2696 2698 2699 2698 2696 2694 2693 2691 2690 2689 2688 2687 2687 2686 2685 2684 2683 2681 2680 2679 2679 2677 2676 2675 2674 2672 2671 2670 2669 2668 2666 2665 2664 2664 2663 2661 2661 2660 2659
2800 2799 2797 2795 2794 2793 2791 2789 2788 2786 2784 2782 2780 2779 2776 2774 2772 2770 2767 2765 2762 2759 2757 2754 2751 2749 2746 2744 2741 2737 2734 2734 2733 2731 2728 2724 2720 2717 2716 2714 2712 2710 2710 2709 2706 2702 2697 2694 2694 2695 2695 2694 2692 2691 2689 2689 2688 2687 2685 2684 2684 2683 2682 2681 2679 2678 2677 2676 2675 2674 2673 2672 2670 2669 2668 2666 2665 2664 2663 2662 2661 2660 2658 2657 2656 2655
2799 2797 2796 2794 2793 2792 2790 2788 2786 2784 2783 2781 2779 2777 2775 2773 2770 2768 2766 2764 2761 2759 2756 2753 2750 2747 2744 2742 2740 2737 2734 2733 2731 2729 2726 2723 2719 2716 2714 2713 2711 2709 2707 2706 2705 2703 2699 2695 2693 2692 2692 2692 2690 2689 2688 2687 2686 2685 2684 2682 2681 2681 2680 2679 2678 2676 2675 2674 2674 2672 2671 2670 2668 2667 2665 2664 2663 2661 2660 2659 2658 2657 2655 2654 2653 2652
2798 2796 2795 2794 2792 2790 2789 2787 2785 2783 2781 2779 2777 2775 2773 2771 2769 2767 2765 2763 2760 2758 2755 2753 2749 2746 2743 2740 2738 2735 2734 2732 2730 2728 2725 2722 2719 2715 2713 2712 2710 2708 2705 2704 2702 2700 2698 2696 2693 2691 2689 2689 2689 2688 2686 2685 2684 2683 2682 2681 2680 2679 2678 2677 2676 2675 2674 2673 2672 2670 2669 2668 2666 2665 2663 2662 2660 2659 2657 2656 2655 2654 2653 2651 2650 2649
2797 2795 2794 2792 2791 2789 2787 2785 2784 2782 2779 2778 2775 2774 2771 2769 2767 2765 2763 2761 2759 2757 2755 2752 2749 2747 2743 2739 2736 2734 2732 2730 2729 2727 2724 2722 2718 2714 2712 2710 2709 2707 2704 2702 2700 2698 2696 2694 2693 2691 2689 2687 2687 2687 2686 2684 2683 2682 2681 2680 2679 2678 2677 2675 2674 2674 2673 2672 2670 2669 2667 2666 2664 2663 2661 2660 2658 2657 2655 2653 2652 2650 2649 2648 2647 2646
2796 2795 2793 2791 2789 2788 2786 2784 2782 2780 2778 2776 2774 2772 2770 2768 2766 2764 2762 2760 2759 2756 2754 2752 2749 2747 2744 2740 2737 2733 2730 2729 2727 2726 2724 2721 2718 2714 2712 2709 2708 2706 2704 2701 2699 2697 2695 2693 2692 2690 2689 2687 2686 2685 2684 2684 2683 2682 2681 2680 2679 2678 2676 2675 2674 2672 2671 2670 2669 2667 2666 2664 2663 2661 2660 2659 2657 2655 2653 2651 2649 2648 2646 2645 2644 2643
2795 2794 2792 2790 2788 2786 2784 2782 2780 2778 2776 2774 2772 2770 2768 2766 2764 2763 2761 2759 2757 2755 2753 2751 2749 2746 2743 2740 2737 2734 2730 2728 2726 2724 2722 2720 2717 2714 2711 2709 2707 2706 2704 2701 2699 2696 2694 2692 2690 2689 2689 2687 2686 2684 2684 2683 2683 2682 2681 2680 2679 2677 2676 2675 2674 2672 2670 2669 2668 2666 2665 2663 2661 2660 2658 2657 2655 2653 2651 2649 2648 2646 2644 2643 2641 2640
2794 2793 2791 2789 2787 2785 2783 2781 2779 2776 2774 2772 2770 2769 2767 2765 2763 2762 2760 2758 2756 2754 2752 2749 2747 2745 2743 2740 2737 2734 2731 2728 2726 2724 2721 2719 2717 2714 2711 2708 2706 2705 2704 2702 2699 2696 2694 2692 2690 2688 2688 2687 2686 2685 2684 2683 2682 2682 2681 2680 2679 2677 2676 2674 2673 2672 2670 2669 2667 2665 2664 2662 2660 2658 2656 2654 2652 2650 2649 2647 2646 2644 2643 2641 2639 2638
2793 2791 2789 2788 2786 2784 2781 2779 2777 2775 2773 2771 2769 2767 2765 2764 2762 2761 2759 2757 2755 2753 2750 2748 2746 2744 2741 2739 2736 2734 2731 2728 2726 2723 2721 2719 2716 2714 2711 2708 2706 2704 2703 2701 2699 2697 2694 2692 2690 2689 2688 2687 2686 2685 2685 2684 2683 2682 2681 2680 2679 2678 2676 2674 2673 2671 2669 2668 2666 2664 2662 2660 2658 2656 2654 2652 2650 2648 2646 2644 2644 2643 2641 2639 2638 2636
2792 2790 2789 2787 2785 2783 2780 2778 2776 2774 2772 2770 2768 2766 2764 2763 2761 2759 2758 2756 2754 2752 2749 2747 2745 2743 2741 2738 2736 2733 2730 2728 2725 2723 2720 2718 2715 2713 2710 2708 2705 2703 2701 2699 2698 2696 2694 2693 2691 2690 2689 2688 2687 2686 2685 2684 2684 2682 2681 2680 2679 2677 2676 2674 2672 2670 2669 2667 2664 2662 2660 2658 2656 2654 2653 2650 2649 2646 2644 2642 2641 2640 2639 2638 2637 2635
2791 2789 2787 2785 2784 2782 2779 2777 2775 2773 2771 2769 2767 2765 2763 2761 2759 2758 2756 2754 2753 2751 2749 2746 2744 2742 2740 2738 2735 2733 2730 2727 2724 2722 2719 2717 2714 2712 2709 2707 2705 2702 2700 2699 2698 2696 2695 2693 2692 2691 2690 2689 2688 2687 2686 2685 2684 2683 2681 2679 2678 2677 2675 2674 2672 2670 2668 2665 2663 2661 2659 2657 2655 2654 2652 2650 2648 2646 2644 2642 2639 2638 2637 2636 2635 2634
2790 2788 2786 2784 2782 2780 2778 2776 2774 2772 2770 2769 2767 2764 2763 2760 2758 2756 2754 2753 2751 2749 2747 2745 2743 2741 2739 2737 2735 2732 2729 2727 2724 2721 2718 2716 2713 2711 2709 2707 2704 2702 2701 2699 2698 2697 2696 2694 2693 2692 2691 2690 2689 2688 2687 2686 2685 2683 2682 2680 2678 2677 2676 2674 2672 2669 2667 2665 2662 2660 2658 2656 2654 2653 2651 2649 2647 2646 2644 2642 2640 2638 2636 2635 2634 2633
2789 2787 2785 2783 2781 2779 2777 2775 2774 2772 2770 2768 2766 2764 2762 2760 2758 2756 2754 2752 2750 2748 2746 2744 2742 2740 2738 2736 2734 2732 2729 2726 2724 2721 2718 2715 2713 2710 2708 2706 2705 2703 2701 2700 2699 2698 2697 2696 2695 2694 2692 2691 2690 2689 2688 2686 2685 2684 2682 2680 2678 2676 2674 2673 2671 2669 2666 2664 2662 2660 2658 2656 2654 2652 2650 2649 2647 2645 2643 2642 2640 2638 2636 2635 2634 2632
2788 2786 2784 2782 2780 2778 2776 2774 2773 2771 2769 2768 2766 2764 2762 2759 2757 2755 2753 2751 2749 2748 2745 2743 2741 2739 2737 2734 2733 2730 2728 2726 2724 2721 2718 2715 2713 2710 2709 2707 2705 2704 2703 2701 2700 2699 2698 2697 2696 2695 2694 2692 2691 2690 2688 2687 2685 2684 2682 2680 2679 2677 2674 2671 2669 2667 2665 2663 2661 2660 2658 2656 2654 2652 2650 2648 2646 2644 2643 2641 2639 2638 2636 2634 2633 2632
2786 2784 2783 2781 2779 2777 2775 2774 2772 2770 2769 2767 2765 2763 2761 2759 2757 2755 2753 2751 2749 2747 2745 2743 2740 2738 2736 2734 2731 2729 2727 2725 2723 2720 2718 2716 2714 2712 2709 2708 2706 2705 2704 2703 2702 2700 2699 2698 2697 2696 2695 2694 2692 2691 2689 2688 2686 2684 2683 2681 2679 2677 2675 2672 2669 2666 2664 2663 2661 2659 2658 2656 2654 2652 2650 2648 2646 2644 2642 2640 2639 2637 2636 2634 2633 2632
2785 2784 2782 2780 2778 2776 2775 2773 2771 2769 2768 2766 2765 2763 2761 2759 2756 2754 2753 2750 2749 2747 2745 2743 2740 2738 2735 2733 2730 2728 2726 2724 2722 2720 2718 2716 2714 2712 2711 2709 2708 2706 2705 2704 2703 2702 2701 2700 2699 2698 2696 2695 2694 2692 2690 2689 2686 2684 2683 2681 2679 2677 2675 2672 2670 2668 2665 2663 2661 2659 2657 2656 2654 2652 2650 2648 2646 2644 2642 2640 2639 2638 2636 2635 2634 2633
2784 2782 2781 2779 2777 2776 2774 2772 2770 2769 2768 2766 2764 2763 2760 2758 2756 2754 2752 2750 2748 2746 2744 2743 2740 2738 2735 2733 2730 2727 2725 2723 2721 2719 2718 2716 2714 2713 2712 2710 2709 2708 2707 2705 2704 2703 2702 2701 2700 2699 2697 2696 2694 2693 2691 2689 2687 2685 2683 2681 2679 2677 2675 2673 2671 2669 2667 2664 2662 2659 2657 2655 2654 2652 2650 2648 2646 2644 2643 2641 2639 2638 2637 2635 2634 2634
2784 2782 2780 2778 2776 2775 2773 2772 2770 2769 2767 2766 2764 2762 2760 2758 2755 2754 2751 2749 2748 2746 2744 2742 2740 2738 2735 2733 2730 2728 2725 2723 2721 2719 2718 2717 2715 2714 2713 2711 2710 2709 2708 2707 2706 2704 2703 2702 2701 2699 2698 2696 2695 2693 2692 2690 2688 2686 2684 2682 2680 2678 2675 2674 2672 2670 2668 2666 2663 2661 2658 2656 2654 2652 2650 2648 2647 2645 2644 2642 2640 2639 2637 2636 2636 2635
2783 2781 2779 2777 2776 2774 2773 2771 2769 2768 2767 2765 2764 2762 2760 2758 2756 2754 2751 2749 2747 2746 2744 2742 2739 2737 2735 2733 2730 2728 2726 2724 2722 2720 2719 2717 2716 2715 2714 2713 2712 2710 2709 2708 2707 2706 2704 2703 2702 2700 2699 2697 2696 2694 2692 2691 2689 2688 2686 2684 2681 2679 2677 2675 2673 2671 2669 2667 2664 2662 2659 2657 2655 2653 2651 2649 2647 2646 2644 2643 2641 2640 2639 2638 2637 2636
2782 2780 2779 2777 2775 2774 2772 2770 2769 2768 2767 2765 2763 2762 2760 2758 2756 2754 2752 2749 2747 2745 2744 2742 2739 2737 2735 2733 2730 2729 2726 2724 2723 2721 2720 2718 2717 2716 2715 2714 2713 2712 2710 2709 2708 2707 2706 2704 2703 2702 2700 2698 2696 2694 2693 2691 2690 2689 2687 2685 2683 2681 2679 2676 2674 2672 2670 2668 2665 2663 2660 2658 2656 2654 2652 2650 2648 2647 2645 2644 2643 2642 2640 2639 2639 2638
2781 2780 2778 2777 2775 2774 2772 2770 2769 2768 2766 2765 2763 2761 2759 2758 2756 2754 2751 2749 2747 2745 2744 2742 2740 2738 2735 2733 2731 2729 2727 2725 2724 2722 2720 2719 2718 2717 2716 2715 2714 2713 2712 2710 2709 2708 2707 2706 2704 2703 2701 2699 2698 2696 2694 2693 2691 2689 2688 2687 2685 2683 2680 2678 2676 2674 2672 2669 2667 2664 2661 2659 2657 2655 2653 2651 2649 2648 2646 2645 2644 2642 2641 2640 2639 2639